1507453200.62,11425,11.81,72920.8,2.07,-2.19,-1.25,0,*77
1507453201.83,11426,11.81,72922.5,2.07,-2.55,-1.79,0,*75
1507453203.04,11427,11.75,72910.3,2.07,-1.79,-1.13,0,*75
1507453204.23,11428,11.81,72924.0,2.07,-1.71,-1.25,0,*77
1507453205.43,11429,11.81,72922.5,2.11,-1.51,-0.97,0,*4B
1507453206.63,11430,11.81,72924.0,2.11,-1.63,-1.21,0,*7E
1507453207.85,11431,11.75,72924.3,2.11,-1.79,-1.39,0,*7D
1507453209.03,11432,11.81,72920.0,2.07,-1.79,-1.33,0,*73
1507453210.24,11433,11.81,72920.5,2.07,-1.83,-1.33,0,*77
1507453211.45,11434,11.81,72924.0,2.07,-2.11,-1.59,0,*74
1507453212.66,11435,11.81,72918.0,2.07,-1.95,-1.55,0,*76
1507453213.88,11436,11.81,72918.8,2.07,-2.19,-1.99,0,*72
1507453215.12,11437,11.81,72916.3,2.05,-2.27,-2.11,0,*7F
1507453216.39,11438,11.75,72914.0,2.05,-2.47,-2.51,0,*72
1507453217.6,11439,11.81,72906.3,2.05,-3.11,-3.23,0,*75
1507453218.85,11440,11.81,72904.8,2.03,-2.63,-2.63,0,*7C
1507453220.07,11441,11.81,72906.0,2.03,-2.87,-2.59,0,*7E
1507453221.29,11442,11.81,72912.8,2.03,-2.35,-1.87,0,*74
1507453222.5,11443,11.81,72920.8,2.07,-2.99,-2.59,0,*77
1507453223.69,11444,11.81,72922.3,2.07,-3.35,-3.07,0,*7D
1507453224.93,11445,11.81,72922.8,2.05,-2.67,-2.35,0,*78
1507453226.17,11446,11.81,72930.8,2.05,-2.75,-2.39,0,*74
1507453227.42,11447,11.81,72930.0,2.05,-2.87,-2.51,0,*76
1507453228.67,11448,11.81,72930.3,2.05,-3.03,-2.63,0,*75
1507453229.88,11449,11.81,72938.8,2.05,-3.27,-2.91,0,*7F
1507453231.13,11450,11.81,72936.0,2.05,-3.15,-2.59,0,*72
1507453232.38,11451,11.81,72936.5,2.05,-4.01,-3.35,0,*7A
1507453233.62,11452,11.81,72934.0,2.05,-3.67,-2.79,0,*77
1507453234.86,11453,11.81,72930.5,2.05,-3.63,-2.39,0,*76
1507453236.06,11454,11.81,72922.5,2.03,-3.15,-1.75,0,*7D
1507453237.27,11455,11.81,72926.0,2.07,-2.11,-0.73,0,*4A
1507453238.45,11456,11.81,72922.8,2.07,-1.79,-0.57,0,*42
1507453239.68,11457,11.81,72920.5,2.11,-1.43,-0.15,0,*4B
1507453240.89,11458,11.81,72926.8,2.13,-1.67,-0.57,0,*46
1507453242.1,11459,11.81,72924.3,2.13,-1.79,-0.77,0,*4A
1507453243.34,11460,11.81,72922.5,2.13,-1.83,-0.81,0,*4C
1507453244.55,11461,11.81,72926.5,2.15,-1.35,-0.49,0,*42
1507453245.76,11462,11.81,72926.3,2.15,-1.35,-0.61,0,*4B
1507453246.96,11463,11.81,72928.0,2.15,-1.51,-0.85,0,*42
1507453248.22,11464,11.81,72930.0,2.17,-1.39,-0.89,0,*45
1507453249.44,11465,11.81,72930.0,2.17,-2.23,-1.75,0,*7E
1507453250.66,11466,11.81,72924.0,2.17,-1.71,-1.25,0,*7C
1507453251.9,11467,11.81,72930.3,2.15,-1.87,-1.47,0,*72
1507453253.14,11468,11.81,72924.8,2.15,-1.91,-1.39,0,*73
1507453254.37,11469,11.81,72922.3,2.17,-1.63,-1.13,0,*75
1507453255.59,11470,11.81,72922.8,2.17,-1.75,-1.17,0,*7E
1507453256.8,11471,11.81,72920.3,2.15,-1.51,-1.01,0,*7C
1507453258.06,11472,11.81,72924.0,2.17,-1.47,-0.85,0,*47
1507453259.27,11473,11.81,72926.5,2.15,-1.79,-1.35,0,*73
1507453260.49,11474,11.81,72924.8,2.17,-1.79,-1.29,0,*7B
1507453261.76,11475,11.81,72924.8,2.17,-1.87,-1.39,0,*7A
1507453262.99,11476,11.81,72924.5,2.17,-1.13,-0.65,0,*4C
1507453264.21,11477,11.81,72920.8,2.17,-1.29,-0.73,0,*43
1507453265.43,11478,11.81,72918.5,2.17,-1.25,-0.77,0,*44
1507453266.67,11479,11.81,72924.0,2.17,-1.05,-0.53,0,*41
1507453267.86,11480,11.81,72920.8,2.19,-1.33,-0.73,0,*4E
1507453269.06,11481,11.81,72924.0,2.19,-1.33,-0.73,0,*4F
1507453270.28,11482,11.81,72926.5,2.21,-1.21,-0.77,0,*40
1507453271.52,11483,11.81,72924.0,2.21,-1.09,-0.57,0,*49
1507453272.73,11484,11.81,72926.5,2.19,-1.13,-0.69,0,*43
1507453273.97,11485,11.81,72928.5,2.21,-1.33,-0.93,0,*4E
1507453275.18,11486,11.81,72926.0,2.23,-1.33,-0.93,0,*4F
1507453276.39,11487,11.81,72924.0,2.23,-1.79,-1.39,0,*71
1507453277.61,11488,11.81,72928.5,2.23,-1.83,-1.51,0,*75
1507453278.85,11489,11.81,72926.0,2.21,-2.15,-1.91,0,*76
1507453280.09,11490,11.81,72932.0,2.19,-2.75,-2.59,0,*74
1507453281.3,11491,11.81,72930.0,2.19,-2.71,-2.43,0,*7A
1507453282.52,11492,11.81,72924.5,2.19,-2.87,-2.47,0,*74
1507453283.77,11493,11.81,72922.3,2.17,-2.55,-2.15,0,*73
1507453285.01,11494,11.81,72916.8,2.17,-2.23,-1.87,0,*7D
1507453286.27,11495,11.81,72922.3,2.17,-2.67,-2.47,0,*73
1507453287.49,11496,11.81,72918.5,2.17,-3.11,-2.87,0,*7C
1507453288.71,11497,11.81,72916.8,2.15,-2.99,-2.67,0,*70
1507453289.95,11498,11.81,72924.8,2.15,-2.67,-2.47,0,*7C
1507453291.17,11499,11.81,72920.0,2.15,-2.79,-2.75,0,*73
1507453292.37,11500,11.81,72922.3,2.11,-3.15,-2.95,0,*73
1507453293.57,11501,11.81,72920.5,2.11,-3.27,-3.03,0,*7D
1507453294.78,11502,11.81,72914.3,2.13,-3.15,-2.91,0,*77
1507453295.98,11503,11.81,72908.0,2.11,-3.19,-2.95,0,*7C
1507453297.17,11504,11.81,72910.3,2.11,-3.19,-3.03,0,*75
1507453298.35,11505,11.88,72914.3,2.07,-3.35,-3.23,0,*7F
1507453299.57,11506,11.81,72910.8,2.11,-3.43,-3.31,0,*79
1507453300.79,11507,11.81,72918.5,2.05,-3.39,-3.39,0,*78
1507453302.01,11508,11.81,72924.5,2.05,-3.35,-3.39,0,*7B
1507453303.25,11509,11.81,72928.0,2.05,-3.51,-3.79,0,*7C
1507453304.47,11510,11.81,72922.0,2.05,-3.87,-4.45,0,*77
1507453305.69,11511,11.81,72920.3,2.03,-4.33,-4.69,0,*76
1507453306.96,11512,11.81,72920.3,2.01,-4.73,-4.85,0,*71
1507453308.19,11513,11.81,72922.3,2.03,-4.77,-4.89,0,*7A
1507453309.44,11514,11.81,72930.5,2.05,-5.23,-6.09,0,*71
1507453310.63,11515,11.81,72928.0,2.07,-6.09,-6.47,0,*73
1507453311.9,11516,11.81,72926.0,2.05,-5.61,-5.85,0,*72
1507453313.14,11517,11.81,72928.5,2.05,-5.69,-6.35,0,*73
1507453314.38,11518,11.81,72930.5,2.05,-6.47,-7.05,0,*71
1507453315.59,11519,11.81,72936.5,2.07,-7.49,-7.69,0,*77
1507453316.86,11520,11.81,72936.8,2.05,-7.57,-7.57,0,*7D
1507453318.12,11521,11.81,72930.5,2.05,-7.27,-6.93,0,*72
1507453319.34,11522,11.81,72930.0,2.07,-7.27,-6.47,0,*7A
1507453320.6,11523,11.81,72924.8,2.05,-6.93,-5.73,0,*73
1507453321.87,11524,11.81,72926.3,2.05,-6.23,-5.31,0,*79
1507453323.11,11525,11.81,72926.3,2.07,-5.65,-4.73,0,*7C
1507453324.32,11526,11.81,72926.5,2.07,-5.43,-4.73,0,*7B
1507453325.54,11527,11.81,72920.3,2.07,-5.27,-4.61,0,*7B
1507453326.76,11528,11.88,72922.3,2.07,-5.55,-4.89,0,*77
1507453327.94,11529,11.81,72920.0,2.07,-4.99,-4.29,0,*7D
1507453329.15,11530,11.81,72912.3,2.07,-4.53,-3.59,0,*73
1507453330.35,11531,11.88,72912.8,2.11,-3.79,-2.83,0,*7C
1507453331.57,11532,11.81,72908.3,2.11,-3.47,-3.03,0,*7B
1507453332.84,11533,11.81,72910.8,2.13,-3.59,-3.59,0,*78
1507453334.09,11534,11.81,72908.5,2.13,-4.17,-4.85,0,*74
1507453335.33,11535,11.81,72926.0,2.13,-4.49,-5.27,0,*77
1507453336.57,11536,11.81,72930.8,2.11,-5.15,-5.65,0,*78
1507453337.82,11537,11.81,72918.8,2.13,-4.81,-4.57,0,*77
1507453339.02,11538,11.81,72914.0,2.13,-4.45,-4.09,0,*7B
1507453340.25,11539,11.88,72908.3,2.13,-4.69,-4.45,0,*7C
1507453341.48,11540,11.81,72900.0,2.13,-4.69,-4.45,0,*72
1507453342.7,11541,11.88,72900.8,2.15,-4.01,-3.23,0,*7C
1507453343.95,11542,11.81,72902.8,2.17,-3.03,-2.51,0,*7C
1507453345.16,11543,11.81,72910.3,2.17,-2.91,-2.99,0,*73
1507453346.36,11544,11.81,72912.8,2.19,-3.31,-3.79,0,*7E
1507453347.57,11545,11.81,72912.8,2.21,-4.13,-4.45,0,*7B
1507453348.77,11546,11.81,72916.3,2.19,-3.75,-4.25,0,*72
1507453350.02,11547,11.81,72932.8,2.21,-4.61,-5.23,0,*7D
1507453351.24,11548,11.81,72936.0,2.25,-6.89,-6.77,0,*70
1507453352.51,11549,11.81,72934.0,2.25,-7.27,-6.27,0,*71
1507453353.78,11550,11.81,72912.8,2.25,-5.77,-5.07,0,*7F
1507453355.02,11551,11.81,72910.5,2.25,-5.43,-4.89,0,*7E
1507453356.25,11552,11.81,72910.0,2.27,-5.07,-4.41,0,*7B
1507453357.44,11553,11.88,72914.3,2.27,-4.41,-3.75,0,*79
1507453358.65,11554,11.81,72912.8,2.29,-4.53,-4.29,0,*7D
1507453359.86,11555,11.88,72912.5,2.29,-4.41,-4.17,0,*72
1507453361.1,11556,11.81,72908.0,2.29,-4.89,-4.65,0,*70
1507453362.31,11557,11.88,72916.0,2.29,-4.29,-3.83,0,*74
1507453363.58,11558,11.88,72918.0,2.29,-5.03,-5.07,0,*78
1507453364.85,11559,11.81,72920.8,2.29,-5.81,-5.81,0,*7D
1507453366.09,11560,11.81,72916.5,2.33,-6.47,-6.19,0,*77
1507453367.34,11561,11.81,72922.5,2.33,-5.93,-5.97,0,*79
1507453368.58,11562,11.81,72924.0,2.33,-5.73,-6.59,0,*75
1507453369.81,11563,11.88,72916.5,2.35,-6.27,-7.05,0,*78
1507453371.02,11564,11.81,72914.3,2.35,-7.53,-7.99,0,*78
1507453372.24,11565,11.88,72922.3,2.33,-8.59,-8.37,0,*71
1507453373.5,11566,11.88,72916.0,2.33,-7.69,-7.35,0,*73
1507453374.75,11567,11.81,72904.0,2.35,-7.61,-6.97,0,*75
1507453375.97,11568,11.88,72910.3,2.35,-7.35,-6.81,0,*7C
1507453377.18,11569,11.88,72912.5,2.35,-8.03,-7.87,0,*70
1507453378.42,11570,11.88,72914.5,2.35,-7.99,-7.91,0,*73
1507453379.61,11571,11.81,72910.0,2.37,-8.59,-8.33,0,*74
1507453380.8,11572,11.88,72912.8,2.37,-8.59,-8.21,0,*74
1507453382.04,11573,11.88,72912.0,2.37,-8.03,-7.39,0,*7C
1507453383.29,11574,11.88,72920.3,2.37,-7.99,-7.91,0,*75
1507453384.51,11575,11.88,72906.8,2.37,-8.85,-8.81,0,*78
1507453385.73,11576,11.88,72908.5,2.37,-8.93,-8.81,0,*7C
1507453386.92,11577,11.88,72904.0,2.37,-9.75,-9.67,0,*7D
1507453388.14,11578,11.88,72906.5,2.33,-9.97,-9.71,0,*7D
1507453389.35,11579,11.88,72904.3,2.27,-9.97,-9.57,0,*7D
1507453390.59,11580,11.88,72906.0,2.29,-8.75,-7.57,0,*76
1507453391.8,11581,11.88,72892.0,2.27,-7.27,-5.47,0,*72
1507453393.02,11582,11.88,72884.8,2.33,-5.97,-4.29,0,*74
1507453394.25,11583,11.88,72894.3,2.35,-5.11,-3.55,0,*71
1507453395.47,11584,11.88,72898.8,2.35,-5.15,-4.33,0,*75
1507453396.68,11585,11.88,72902.8,2.35,-4.89,-4.13,0,*72
1507453397.88,11586,11.88,72906.8,2.35,-3.95,-3.35,0,*78
1507453399.07,11587,11.88,72910.0,2.37,-4.37,-4.13,0,*77
1507453400.29,11588,11.88,72910.0,2.37,-3.79,-3.55,0,*70
1507453401.49,11589,11.88,72908.8,2.37,-3.35,-3.03,0,*7A
1507453402.68,11590,11.88,72908.5,2.37,-3.19,-2.91,0,*76
1507453403.89,11591,11.88,72912.8,2.39,-3.15,-3.03,0,*7F
1507453405.14,11592,11.88,72922.5,2.39,-3.51,-3.79,0,*71
1507453406.36,11593,11.88,72932.3,2.39,-3.39,-4.65,0,*74
1507453407.59,11594,11.88,72936.3,2.39,-4.45,-6.63,0,*7B
1507453408.81,11595,11.88,72932.8,2.39,-6.43,-8.25,0,*72
1507453410.04,11596,11.88,72932.0,2.39,-7.95,-8.63,0,*79
1507453411.26,11597,11.88,72932.5,2.37,-7.65,-8.29,0,*77
1507453412.5,11598,11.88,72932.5,2.39,-7.61,-7.83,0,*7D
1507453413.75,11599,11.88,72932.8,2.39,-7.73,-7.87,0,*7B
1507453414.97,11600,11.88,72934.5,2.41,-7.65,-7.53,0,*79
1507453416.24,11601,11.88,72934.0,2.43,-8.03,-7.77,0,*73
1507453417.51,11602,11.88,72930.5,2.43,-8.03,-7.43,0,*77
1507453418.7,11603,11.88,72932.3,2.41,-8.75,-8.25,0,*7A
1507453419.93,11604,11.88,72934.8,2.43,-8.71,-8.21,0,*7F
1507453421.18,11605,11.88,72930.0,2.43,-8.63,-7.91,0,*79
1507453422.43,11606,11.88,72918.3,2.43,-7.91,-6.59,0,*7D
1507453423.65,11607,11.88,72928.0,2.45,-7.19,-5.93,0,*7F
1507453424.89,11608,11.88,72918.8,2.45,-7.77,-6.97,0,*7F
1507453426.08,11609,11.88,72924.8,2.45,-7.49,-6.85,0,*70
1507453427.27,11610,11.88,72910.8,2.45,-7.23,-6.85,0,*74
1507453428.51,11611,11.88,72912.5,2.45,-7.91,-8.07,0,*78
1507453429.75,11612,11.88,72904.0,2.45,-7.91,-7.99,0,*73
1507453430.96,11613,11.88,72894.5,2.45,-9.49,-9.75,0,*75
1507453432.2,11614,11.88,72902.5,2.45,-9.61,-9.41,0,*7F
1507453433.4,11615,11.88,72902.5,2.41,-9.01,-8.71,0,*7E
1507453434.65,11616,11.88,72894.3,2.43,-9.53,-9.01,0,*7E
1507453435.85,11617,11.88,72902.0,2.41,-9.05,-8.37,0,*7A
1507453437.07,11618,11.88,72906.8,2.41,-7.95,-7.23,0,*78
1507453438.33,11619,11.88,72902.8,2.43,-8.51,-7.83,0,*76
1507453439.57,11620,11.88,72910.8,2.43,-8.21,-7.43,0,*77
1507453440.78,11621,11.88,72904.5,2.45,-7.91,-6.69,0,*7D
1507453441.98,11622,11.88,72906.8,2.45,-7.19,-6.01,0,*70
1507453443.16,11623,11.88,72910.5,2.45,-6.69,-5.35,0,*73
1507453444.41,11624,11.88,72904.8,2.47,-6.35,-5.27,0,*7C
1507453445.66,11625,11.88,72908.8,2.47,-5.23,-4.33,0,*7D
1507453446.88,11626,11.88,72904.0,2.45,-5.15,-4.33,0,*79
1507453448.14,11627,11.88,72916.5,2.47,-5.27,-4.69,0,*74
1507453449.38,11628,11.88,72912.3,2.47,-5.65,-5.39,0,*79
1507453450.6,11629,11.88,72904.0,2.45,-6.19,-5.51,0,*7C
1507453451.84,11630,11.88,72908.8,2.47,-5.65,-4.99,0,*7B
1507453453.11,11631,11.88,72912.5,2.47,-5.69,-4.69,0,*79
1507453454.35,11632,11.88,72914.0,2.45,-5.69,-4.77,0,*77
1507453455.57,11633,11.88,72922.0,2.47,-5.39,-4.25,0,*76
1507453456.82,11634,11.88,72920.3,2.47,-4.73,-3.47,0,*7D
1507453458.05,11635,11.88,72914.3,2.47,-4.61,-3.47,0,*7F
1507453459.27,11636,11.88,72912.3,2.47,-3.83,-2.91,0,*7D
1507453460.49,11637,11.88,72920.0,2.47,-3.79,-3.07,0,*77
1507453461.74,11638,11.88,72922.0,2.47,-3.59,-3.11,0,*7D
1507453462.95,11639,11.88,72926.8,2.49,-3.95,-3.43,0,*75
1507453464.14,11640,11.88,72920.0,2.49,-4.09,-3.39,0,*74
1507453465.34,11641,11.88,72920.8,2.49,-3.79,-2.91,0,*76
1507453466.55,11642,11.88,72920.0,2.49,-3.55,-2.91,0,*7B
1507453467.77,11643,11.88,72922.0,2.51,-2.79,-2.39,0,*7E
1507453469.01,11644,11.88,72922.8,2.51,-2.79,-2.51,0,*77
1507453470.26,11645,11.88,72920.5,2.53,-2.75,-2.47,0,*7F
1507453471.48,11646,11.88,72916.5,2.53,-3.51,-2.95,0,*74
1507453472.72,11647,11.88,72912.3,2.59,-3.71,-2.99,0,*71
1507453473.96,11648,11.88,72906.0,2.61,-3.71,-2.67,0,*74
1507453475.19,11649,11.88,72908.5,2.61,-3.91,-2.63,0,*7F
1507453476.43,11650,11.88,72912.5,2.59,-3.95,-2.59,0,*71
1507453477.65,11651,11.88,72914.0,2.61,-3.63,-2.31,0,*7C
1507453478.87,11652,11.88,72920.0,2.61,-2.75,-1.63,0,*7D
1507453480.05,11653,11.88,72924.5,2.61,-2.27,-1.33,0,*7E
1507453481.24,11654,11.88,72926.3,2.61,-2.31,-1.63,0,*7B
1507453482.43,11655,11.94,72934.8,2.65,-2.15,-1.51,0,*79
1507453483.7,11656,11.88,72932.8,2.63,-2.55,-1.99,0,*7C
1507453484.96,11657,11.94,72934.5,2.63,-2.51,-1.87,0,*76
1507453486.22,11658,11.88,72928.8,2.63,-2.67,-1.99,0,*73
1507453487.41,11659,11.88,72932.0,2.65,-2.43,-1.79,0,*7C
1507453488.6,11660,11.88,72934.3,2.65,-2.39,-1.63,0,*70
1507453489.81,11661,11.94,72936.3,2.67,-2.35,-1.59,0,*76
1507453491.05,11662,11.88,72928.8,2.67,-2.79,-1.99,0,*71
1507453492.27,11663,11.88,72930.0,2.67,-2.43,-1.71,0,*7F
1507453493.46,11664,11.88,72936.3,2.65,-3.11,-2.35,0,*7F
1507453494.72,11665,11.88,72932.0,2.63,-2.51,-1.87,0,*77
1507453495.92,11666,11.88,72932.8,2.65,-2.23,-1.71,0,*7E
1507453497.13,11667,11.88,72928.0,2.65,-1.75,-1.35,0,*7F
1507453498.34,11668,11.88,72920.8,2.63,-1.79,-1.51,0,*78
1507453499.59,11669,11.88,72916.8,2.67,-1.99,-1.71,0,*71
1507453500.81,11670,11.88,72908.0,2.65,-2.27,-2.03,0,*7B
1507453501.99,11671,11.88,72910.8,2.65,-2.39,-2.19,0,*7E
1507453503.23,11672,11.88,72912.5,2.63,-2.51,-2.15,0,*79
1507453504.47,11673,11.94,72918.3,2.65,-2.47,-2.03,0,*7E
1507453505.72,11674,11.94,72912.5,2.65,-2.47,-1.99,0,*79
1507453506.97,11675,11.94,72912.3,2.67,-1.99,-1.59,0,*76
1507453508.2,11676,11.94,72912.5,2.67,-2.35,-2.11,0,*7F
1507453509.47,11677,11.88,72908.0,2.67,-2.59,-2.55,0,*74
1507453510.68,11678,11.88,72914.8,2.67,-2.87,-3.11,0,*79
1507453511.92,11679,11.88,72920.3,2.69,-3.43,-3.87,0,*70
1507453513.14,11680,11.88,72922.5,2.67,-4.25,-4.99,0,*77
1507453514.4,11681,11.94,72922.3,2.67,-5.27,-5.69,0,*7B
1507453515.67,11682,11.94,72926.0,2.67,-6.19,-5.81,0,*70
1507453516.88,11683,11.94,72920.8,2.67,-6.05,-4.99,0,*74
1507453518.1,11684,11.88,72920.8,2.67,-5.55,-4.45,0,*74
1507453519.34,11685,11.88,72920.3,2.69,-5.65,-4.45,0,*78
1507453520.55,11686,11.94,72914.3,2.71,-4.29,-3.71,0,*7B
1507453521.76,11687,11.88,72912.0,2.71,-4.99,-4.69,0,*7F
1507453523.0,11688,11.94,72916.3,2.73,-5.11,-4.41,0,*79
1507453524.27,11689,11.88,72918.0,2.73,-5.73,-4.73,0,*7D
1507453525.48,11690,11.88,72910.5,2.79,-4.49,-3.59,0,*78
1507453526.7,11691,11.88,72918.0,2.79,-4.73,-3.87,0,*73
1507453527.89,11692,11.88,72922.3,2.79,-6.05,-4.25,0,*7C
1507453529.14,11693,11.88,72918.8,2.83,-5.15,-2.67,0,*7A
1507453530.33,11694,11.94,72916.8,2.83,-4.33,-2.27,0,*7C
1507453531.53,11695,11.94,72910.0,2.83,-3.27,-1.63,0,*7C
1507453532.72,11696,11.94,72904.8,2.87,-3.11,-1.71,0,*7D
1507453533.94,11697,11.94,72906.8,2.87,-2.87,-2.03,0,*74
1507453535.13,11698,11.94,72910.0,2.87,-2.23,-1.71,0,*73
1507453536.37,11699,11.94,72914.0,2.85,-2.55,-2.27,0,*71
1507453537.57,11700,11.94,72910.5,2.87,-3.15,-2.83,0,*79
1507453538.79,11701,11.88,72906.0,2.85,-2.95,-2.79,0,*76
1507453540.04,11702,11.88,72906.5,2.85,-2.95,-2.51,0,*7F
1507453541.28,11703,11.88,72904.3,2.87,-2.67,-1.87,0,*79
1507453542.5,11704,11.94,72910.3,2.87,-2.27,-1.39,0,*7F
1507453543.74,11705,11.94,72908.8,2.85,-1.79,-1.05,0,*7B
1507453544.94,11706,11.94,72902.0,2.87,-1.51,-0.93,0,*4E
1507453546.18,11707,11.94,72902.0,2.87,-1.39,-0.85,0,*46
1507453547.41,11708,11.94,72902.5,2.89,-1.51,-1.01,0,*74
1507453548.66,11709,11.94,72902.5,2.91,-1.83,-1.35,0,*74
1507453549.87,11710,11.88,72902.8,2.91,-2.07,-1.55,0,*75
1507453551.1,11711,11.94,72906.0,2.91,-1.99,-1.55,0,*70
1507453552.34,11712,11.88,72904.8,2.91,-1.91,-1.47,0,*78
1507453553.55,11713,11.94,72910.3,2.91,-1.67,-1.43,0,*74
1507453554.8,11714,11.94,72912.8,2.91,-2.75,-2.47,0,*74
1507453556.04,11715,11.94,72916.3,2.89,-2.51,-2.23,0,*78
1507453557.3,11716,11.94,72926.3,2.89,-2.11,-1.71,0,*7B
1507453558.51,11717,11.94,72924.5,2.91,-1.75,-1.35,0,*72
1507453559.73,11718,11.94,72926.3,2.89,-1.79,-1.29,0,*75
1507453560.97,11719,11.94,72924.8,2.89,-1.87,-1.51,0,*7A
1507453562.22,11720,11.94,72926.0,2.89,-2.35,-2.03,0,*7E
1507453563.46,11721,11.94,72926.5,2.89,-2.03,-1.75,0,*78
1507453564.65,11722,11.94,72930.3,2.87,-1.79,-1.63,0,*7C
1507453565.84,11723,11.94,72930.0,2.87,-2.23,-2.27,0,*72
1507453567.08,11724,11.94,72932.8,2.87,-2.67,-2.75,0,*72
1507453568.29,11725,11.94,72930.8,2.87,-3.35,-3.43,0,*71
1507453569.55,11726,11.94,72928.8,2.85,-3.43,-3.67,0,*77
1507453570.74,11727,11.94,72926.5,2.87,-4.13,-4.17,0,*76
1507453571.93,11728,11.94,72928.0,2.87,-4.45,-4.53,0,*7A
1507453573.14,11729,11.94,72924.3,2.85,-4.49,-4.61,0,*74
1507453574.36,11730,11.94,72908.5,2.85,-4.05,-3.79,0,*7A
1507453575.61,11731,11.94,72910.8,2.81,-3.87,-3.43,0,*7B
1507453576.8,11732,11.94,72892.0,2.83,-4.57,-4.33,0,*70
1507453578.07,11733,11.94,72880.3,2.81,-5.11,-5.27,0,*74
1507453579.35,11734,11.94,72888.3,2.81,-5.65,-5.89,0,*74
1507453580.55,11735,11.94,72884.0,2.75,-6.51,-6.39,0,*72
1507453581.74,11736,11.94,72886.0,2.71,-6.43,-6.13,0,*7E
1507453582.93,11737,11.94,72898.3,2.71,-6.81,-6.01,0,*72
1507453584.16,11738,11.94,72896.8,2.71,-6.51,-5.27,0,*77
1507453585.38,11739,11.94,72906.5,2.69,-5.39,-4.61,0,*71
1507453586.6,11740,11.94,72914.5,2.67,-6.05,-5.55,0,*7B
1507453587.87,11741,11.94,72910.0,2.67,-6.19,-5.81,0,*7E
1507453589.14,11742,11.94,72912.5,2.67,-5.69,-5.31,0,*72
1507453590.36,11743,11.94,72914.0,2.65,-5.47,-4.81,0,*77
1507453591.56,11744,11.94,72914.0,2.63,-4.99,-4.37,0,*79
1507453592.79,11745,11.94,72914.5,2.63,-4.69,-4.33,0,*73
1507453594.0,11746,11.94,72910.3,2.63,-4.45,-4.29,0,*75
1507453595.26,11747,11.94,72908.3,2.63,-4.85,-5.23,0,*73
1507453596.47,11748,11.94,72912.0,2.63,-5.35,-6.39,0,*7E
1507453597.71,11749,11.94,72908.8,2.63,-6.89,-7.43,0,*77
1507453598.95,11750,11.94,72900.0,2.63,-8.41,-8.11,0,*7D
1507453600.16,11751,11.94,72892.8,2.63,-8.37,-6.89,0,*72
1507453601.35,11752,11.94,72894.8,2.61,-7.87,-5.47,0,*76
1507453602.56,11753,11.94,72890.0,2.63,-6.31,-4.29,0,*70
1507453603.77,11754,11.94,72896.0,2.63,-5.51,-4.45,0,*78
1507453605.04,11755,11.94,72896.5,2.63,-5.23,-4.81,0,*74
1507453606.25,11756,11.94,72906.0,2.59,-6.55,-6.01,0,*76
1507453607.49,11757,11.94,72906.0,2.57,-5.15,-4.77,0,*7D
1507453608.74,11758,11.94,72914.8,2.53,-5.19,-4.89,0,*7B
1507453609.96,11759,11.94,72912.0,2.57,-5.51,-5.23,0,*73
1507453611.18,11760,11.94,72914.5,2.53,-5.69,-4.49,0,*7B
1507453612.39,11761,11.94,72914.3,2.57,-5.23,-3.83,0,*71
1507453613.58,11762,11.94,72928.3,2.57,-4.37,-2.99,0,*7C
1507453614.8,11763,11.94,72924.8,2.57,-3.47,-2.19,0,*75
1507453616.01,11764,11.94,72914.8,2.59,-2.83,-1.67,0,*7F
1507453617.22,11765,11.94,72918.3,2.61,-2.27,-1.39,0,*70
1507453618.46,11766,11.94,72904.3,2.61,-2.55,-1.87,0,*73
1507453619.71,11767,11.94,72898.3,2.63,-3.63,-3.27,0,*7C
1507453620.9,11768,11.94,72886.3,2.65,-3.27,-3.03,0,*73
1507453622.14,11769,11.94,72900.0,2.63,-3.79,-3.43,0,*7B
1507453623.38,11770,11.94,72906.8,2.63,-3.51,-3.03,0,*7D
1507453624.6,11771,11.94,72906.0,2.65,-3.15,-2.59,0,*74
1507453625.86,11772,11.94,72902.3,2.63,-2.55,-1.99,0,*7B
1507453627.1,11773,11.94,72896.8,2.65,-2.51,-1.95,0,*74
1507453628.35,11774,11.94,72896.5,2.67,-2.59,-1.95,0,*79
1507453629.57,11775,11.94,72898.8,2.69,-2.79,-2.19,0,*73
1507453630.79,11776,11.94,72900.3,2.67,-2.43,-1.79,0,*72
1507453632.0,11777,11.94,72902.5,2.69,-2.43,-2.19,0,*78
1507453633.22,11778,11.94,72904.8,2.67,-2.43,-2.31,0,*73
1507453634.43,11779,11.94,72904.3,2.69,-3.07,-3.07,0,*79
1507453635.66,11780,11.94,72908.5,2.69,-3.35,-3.07,0,*7E
1507453636.88,11781,11.94,72912.0,2.69,-3.75,-3.23,0,*7D
1507453638.11,11782,11.94,72916.8,2.67,-4.33,-3.71,0,*72
1507453639.3,11783,11.94,72916.8,2.65,-4.37,-4.05,0,*71
1507453640.49,11784,11.94,72922.0,2.65,-4.25,-4.13,0,*72
1507453641.69,11785,11.94,72916.5,2.65,-4.13,-4.29,0,*7F
1507453642.94,11786,11.94,72922.3,2.63,-4.69,-4.73,0,*78
1507453644.21,11787,11.94,72922.8,2.63,-5.23,-4.85,0,*7F
1507453645.42,11788,11.94,72922.3,2.63,-4.57,-3.91,0,*70
1507453646.66,11789,11.94,72918.5,2.59,-4.37,-3.59,0,*7A
1507453647.88,11790,11.94,72912.5,2.61,-3.39,-2.51,0,*79
1507453649.08,11791,11.94,72912.3,2.63,-3.07,-2.27,0,*76
1507453650.3,11792,11.94,72914.0,2.63,-3.15,-2.31,0,*71
1507453651.51,11793,11.94,72902.5,2.65,-3.91,-3.27,0,*7C
1507453652.72,11794,11.94,72894.5,2.63,-4.29,-3.91,0,*74
1507453653.93,11795,11.94,72892.8,2.63,-4.41,-3.95,0,*7F
1507453655.16,11796,11.94,72886.8,2.63,-4.17,-3.63,0,*76
1507453656.34,11797,11.94,72888.3,2.61,-4.53,-3.95,0,*7C
1507453657.53,11798,11.94,72894.5,2.61,-3.95,-3.31,0,*70
1507453658.72,11799,11.94,72896.0,2.61,-3.79,-3.27,0,*74
1507453659.94,11800,11.94,72904.3,2.61,-3.51,-3.19,0,*7C
1507453661.17,11801,11.94,72902.5,2.61,-3.71,-3.51,0,*73
1507453662.43,11802,11.94,72906.5,2.59,-3.55,-3.43,0,*7E
1507453663.68,11803,11.94,72904.0,2.59,-3.67,-3.47,0,*7A
1507453664.95,11804,11.94,72908.0,2.59,-4.01,-4.01,0,*7F
1507453666.16,11805,11.94,72910.0,2.59,-4.37,-4.49,0,*77
1507453667.41,11806,11.94,72922.0,2.59,-5.03,-5.39,0,*74
1507453668.66,11807,11.94,72922.0,2.59,-5.93,-6.31,0,*77
1507453669.87,11808,11.94,72918.8,2.59,-6.43,-6.47,0,*77
1507453671.12,11809,11.94,72924.8,2.59,-8.17,-8.07,0,*73
1507453672.37,11810,11.94,72918.3,2.59,-8.71,-7.39,0,*79
1507453673.61,11811,11.94,72914.5,2.61,-7.05,-4.81,0,*7F
1507453674.84,11812,11.94,72914.0,2.63,-6.19,-4.17,0,*7D
1507453676.06,11813,11.94,72908.0,2.65,-5.19,-2.87,0,*76
1507453677.26,11814,11.94,72906.5,2.63,-4.99,-3.31,0,*72
1507453678.45,11815,11.94,72914.3,2.65,-4.57,-3.15,0,*71
1507453679.66,11816,11.94,72914.3,2.65,-3.23,-2.11,0,*73
1507453680.9,11817,11.94,72918.5,2.69,-2.83,-1.83,0,*7D
1507453682.15,11818,11.94,72918.0,2.69,-2.99,-2.11,0,*71
1507453683.42,11819,11.94,72916.0,2.69,-2.55,-1.83,0,*78
1507453684.64,11820,11.94,72916.5,2.71,-3.15,-2.55,0,*76
1507453685.83,11821,11.94,72914.0,2.71,-3.03,-2.39,0,*7A
1507453687.08,11822,11.94,72912.8,2.69,-3.19,-2.55,0,*71
1507453688.32,11823,11.94,72912.5,2.69,-3.43,-2.79,0,*71
1507453689.56,11824,11.94,72912.8,2.69,-3.07,-2.67,0,*79
1507453690.81,11825,11.94,72912.3,2.69,-2.79,-2.55,0,*71
1507453692.02,11826,11.94,72910.0,2.67,-2.99,-2.87,0,*7D
1507453693.26,11827,11.94,72904.0,2.67,-3.31,-3.63,0,*74
1507453694.48,11828,11.94,72906.8,2.67,-3.95,-4.13,0,*75
1507453695.73,11829,11.94,72912.3,2.67,-5.51,-6.19,0,*72
1507453696.99,11830,11.94,72904.5,2.67,-7.77,-7.95,0,*79
1507453698.21,11831,11.94,72908.5,2.65,-8.37,-7.57,0,*7F
1507453699.4,11832,12.0,72906.8,2.65,-8.37,-6.59,0,*73
1507453700.67,11833,12.0,72904.8,2.63,-7.57,-5.73,0,*76
1507453701.88,11834,11.94,72910.5,2.65,-6.39,-4.93,0,*71
1507453703.11,11835,11.94,72900.8,2.63,-5.61,-4.05,0,*77
1507453704.32,11836,11.94,72912.5,2.65,-5.27,-3.87,0,*7D
1507453705.57,11837,11.94,72912.3,2.65,-3.67,-2.63,0,*75
1507453706.82,11838,11.94,72910.0,2.69,-3.31,-2.67,0,*71
1507453708.07,11839,12.0,72906.8,2.69,-3.07,-2.55,0,*74
1507453709.34,11840,12.0,72900.8,2.69,-3.43,-2.67,0,*7B
1507453710.58,11841,12.0,72900.5,2.71,-3.55,-2.67,0,*74
1507453711.81,11842,12.0,72902.0,2.73,-3.95,-3.03,0,*7A
1507453713.06,11843,12.0,72900.8,2.71,-3.71,-2.63,0,*74
1507453714.28,11844,11.94,72900.3,2.73,-3.39,-2.39,0,*72
1507453715.51,11845,11.94,72902.5,2.73,-3.95,-3.19,0,*76